Location: Colebrook
(42.0017°N, 73.0973°W)
Time: 14:15:32
(UTC-05:00)

CAS-4B - Pass Details

Date: 28 November 2021
Orbit: 529 x 539 km, 43.0° (Epoch: 16 January)

Event Time Altitude Azimuth Distance (km) Brightness Sun altitude
Exits shadow 04:02:57 11° 141° (SE) 1,681 ? -32.0°
Drops below altitude 10° 04:03:11 10° 139° (SE) 1,765 ? -31.9°
Sets 04:05:31 0° 131° (SE) 2,653 ? -31.5°
